This demonstration page uses our WeatherBlox Daily Observations layout. Learn more.

38.89511, -77.03637

Hourly Observations for June 4, 2020

Temp ( °F °C ) Dew Point ( °F °C ) Humidity (%) Winds ( mph kmh ) Pressure ( in mb ) Visibility ( mi km ) Precip ( " mm )
12:52 am 00:52 Mostly Cloudy 83 28.3 62 16.7 49 49 W 8 13 29.8 1009 10 16.0934 0 0
1:52 am 01:52 Mostly Cloudy 80 26.7 63 17.2 56 56 N 5 7 29.8 1009 10 16.0934 0 0
2:52 am 02:52 Partly Cloudy 78 25.6 64 17.8 62 62 NNE 3 6 29.8 1009 10 16.0934 0 0
3:52 am 03:52 Mostly Cloudy 77 25 65 18.3 66 66 Calm 29.81 1009 10 16.0934 0 0
4:52 am 04:52 Mostly Cloudy 74 23.3 65 18.3 74 74 Calm 29.82 1010 10 16.0934 0 0
5:52 am 05:52 Mostly Cloudy 74 23.3 68 20 82 82 Calm 29.83 1010 10 16.0934 0 0
6:52 am 06:52 Partly Cloudy 74 23.3 66 18.9 76 76 Calm 29.85 1011 10 16.0934 0 0
7:52 am 07:52 Partly Cloudy 77 25 69 20.6 77 77 SE 5 7 29.88 1012 10 16.0934 0 0
8:52 am 08:52 Mostly Cloudy 78 25.6 68 20 71 71 S 7 11 29.9 1013 10 16.0934 0 0
9:52 am 09:52 Mostly Cloudy 82 27.8 66 18.9 58 58 S 5 7 29.91 1013 10 16.0934 0.001 0.001
10:52 am 10:52 Partly Cloudy 85 29.4 65 18.3 51 51 VRB 3 6 29.91 1013 10 16.0934 0 0
11:52 am 11:52 Partly Cloudy 86 30 65 18.3 49 49 S 6 9 29.91 1013 10 16.0934 0 0
12:52 pm 12:52 Partly Cloudy 88 31.1 66 18.9 48 48 S 9 15 29.9 1012 10 16.0934 0 0
1:52 pm 13:52 Mostly Cloudy 90 32.2 66 18.9 45 45 S 9 15 29.88 1012 10 16.0934 0 0
2:52 pm 14:52 Mostly Cloudy 91 32.8 66 18.9 44 44 S 12 19 29.86 1011 10 16.0934 0 0
3:52 pm 15:52 Partly Cloudy 91 32.8 66 18.9 44 44 S 13 20 29.84 1010 10 16.0934 0 0
4:52 pm 16:52 Mostly Sunny 91 32.8 68 20 47 47 S 13 20 29.82 1010 10 16.0934 0 0
5:52 pm 17:52 Partly Cloudy 89 31.7 68 20 50 50 S 13 20 29.81 1009 10 16.0934 0 0
6:52 pm 18:52 Mostly Cloudy 87 30.6 68 20 53 53 SE 10 17 29.82 1010 10 16.0934 0 0
7:25 pm 19:25 Mostly Cloudy 86 30 68 20 55 55 SSE 8 13 29.83 1010 10 16.0934 0 0
7:48 pm 19:48 Mostly Cloudy with Thunderstorms 84 29 68 20 58 58 S 3 6 29.84 1010 10 16.0934 0 0
7:52 pm 19:52 Mostly Cloudy with Thunderstorms 85 29.4 68 20 57 57 S 3 6 29.84 1010 10 16.0934 0 0
8:02 pm 20:02 Cloudy with Thunderstorms 84 28.9 67 19.4 57 57 W 36 57 29.88 1012 9 14.48406 0 0
8:14 pm 20:14 Cloudy with Heavy Thunderstorms 74 23.3 67 19.4 79 79 WNW 26 43 29.89 1012 1.5 2.41401 0.001 0.001
8:18 pm 20:18 Cloudy with Heavy Thunderstorms 72 22.2 66 18.9 82 82 W 24 39 29.9 1012 2.5 4.02335 0.01 0.254
8:22 pm 20:22 Windy with Storms Likely 73 22.8 66 18.9 79 79 W 22 35 29.9 1012 4 6.43736 0.03 0.762
8:32 pm 20:32 Cloudy with Heavy Thunderstorms 72 22.2 67 19.4 84 84 S 23 37 29.89 1012 1.5 2.41401 0.14 3.556
8:38 pm 20:38 Cloudy with Light Thunderstorms 72 22.2 68 20 87 87 S 15 24 29.88 1012 5 8.0467 0.26 6.604
8:52 pm 20:52 Cloudy with Light Thunderstorms 74 23.3 68 20 82 82 S 7 11 29.85 1011 10 16.0934 0.28 7.112
9:08 pm 21:08 Cloudy 74 23.3 69 20.6 85 85 Calm 29.86 1011 10 16.0934 0.001 0.001
9:27 pm 21:27 Cloudy with Nearby Thunderstorms 73 22.8 69 20.6 87 87 N 6 9 29.87 1011 10 16.0934 0.001 0.001
9:33 pm 21:33 Cloudy with Thunderstorms 73 22.8 69 20.6 87 87 N 6 9 29.87 1011 10 16.0934 0.001 0.001
9:52 pm 21:52 Cloudy with Light Thunderstorms 74 23.3 70 21.1 88 88 SSE 3 6 29.87 1012 5 8.0467 0.03 0.762
10:07 pm 22:07 Cloudy 74 23.3 70 21.1 88 88 S 13 20 29.89 1012 10 16.0934 0.08 2.032
10:47 pm 22:47 Cloudy with Nearby Thunderstorms 73 23 70 21 89 89 S 3 6 29.87 1011 10 16.0934 0.08 2.032
10:52 pm 22:52 Cloudy with Nearby Thunderstorms 74 23.3 69 20.6 85 85 Calm 29.87 1012 10 16.0934 0.08 2.032
11:02 pm 23:02 Mostly Cloudy 73 22.8 69 20.6 87 87 NNW 18 30 29.89 1012 10 16.0934 0 0
11:31 pm 23:31 Cloudy with Nearby Thunderstorms 73 22.8 68 20 84 84 NNW 9 15 29.89 1012 8 12.87472 0.02 0.508
11:52 pm 23:52 Cloudy with Thunderstorms 72 22.2 69 20.6 91 91 NNW 8 13 29.9 1013 10 16.0934 0.02 0.508

Powered by AerisWeather